• In Portugal
  • List of Countries
  • For 7 days
  • Water Temperature
  • Satellite Maps
  • Weather Map
  • Weather Widgets
  • user-avatar
    Login

    Hourly Weather Chistyakovе (Torez)

    Today, 19 October, Friday

    Time Temperature Precipitation Wind Pressure Humidity
    00:00 +14°C° 0 mm 3 mps 747 mmHg 55%
    01:00 +13°C° 0 mm 3 mps 747 mmHg 57%
    02:00 +13°C° 0 mm 3 mps 746 mmHg 59%
    03:00 +12°C° 0 mm 3 mps 746 mmHg 61%
    04:00 +12°C° 0 mm 3 mps 746 mmHg 63%
    05:00 +12°C° 0 mm 3 mps 746 mmHg 66%
    06:00 +11°C° 0 mm 3 mps 746 mmHg 68%
    07:00 +12°C° 0 mm 4 mps 746 mmHg 65%
    08:00 +14°C° 0 mm 4 mps 746 mmHg 62%
    09:00 +15°C° 0 mm 5 mps 746 mmHg 59%
    10:00 +16°C° 0 mm 5 mps 746 mmHg 53%
    11:00 +19°C° 0 mm 5 mps 745 mmHg 47%
    12:00 +21°C° 0 mm 5 mps 745 mmHg 42%
    13:00 +21°C° 0 mm 5 mps 745 mmHg 40%
    14:00 +22°C° 0 mm 5 mps 745 mmHg 38%
    15:00 +22°C° 0 mm 5 mps 744 mmHg 36%
    16:00 +21°C° 0 mm 4 mps 744 mmHg 41%
    17:00 +20°C° 0 mm 4 mps 744 mmHg 45%
    18:00 +18°C° 0 mm 3 mps 744 mmHg 50%
    19:00 +18°C° 0 mm 3 mps 743 mmHg 53%
    20:00 +17°C° 0 mm 3 mps 743 mmHg 56%
    21:00 +16°C° 0 mm 3 mps 743 mmHg 60%
    22:00 +16°C° 0 mm 3 mps 743 mmHg 64%
    23:00 +14°C° 0 mm 3 mps 743 mmHg 68%

    Tomorrow, 20 October, Saturday

    Time Temperature Precipitation Wind Pressure Humidity
    00:00 +13°C° 0 mm 3 mps 742 mmHg 72%
    01:00 +14°C° 0 mm 2 mps 742 mmHg 76%
    02:00 +13°C° 0 mm 2 mps 742 mmHg 79%
    03:00 +13°C° 0 mm 1 mps 742 mmHg 83%
    04:00 +13°C° 0 mm 1 mps 742 mmHg 84%
    05:00 +12°C° 0 mm 1 mps 742 mmHg 85%
    06:00 +12°C° 0 mm 1 mps 742 mmHg 87%
    07:00 +13°C° 0 mm 1 mps 742 mmHg 82%
    08:00 +14°C° 0 mm 1 mps 742 mmHg 77%
    09:00 +15°C° 0 mm 1 mps 742 mmHg 73%
    10:00 +16°C° 0 mm 1 mps 742 mmHg 65%
    11:00 +19°C° 0 mm 1 mps 742 mmHg 58%
    12:00 +21°C° 0 mm 1 mps 742 mmHg 51%
    13:00 +21°C° 0 mm 1 mps 742 mmHg 48%
    14:00 +22°C° 0 mm 1 mps 742 mmHg 45%
    15:00 +22°C° 0 mm 1 mps 742 mmHg 42%
    16:00 +21°C° 0 mm 1 mps 742 mmHg 46%
    17:00 +20°C° 0 mm 1 mps 742 mmHg 49%
    18:00 +19°C° 0 mm 1 mps 742 mmHg 53%
    19:00 +18°C° 0 mm 1 mps 742 mmHg 56%
    20:00 +18°C° 0 mm 1 mps 742 mmHg 59%
    21:00 +16°C° 0 mm 1 mps 742 mmHg 62%
    22:00 +15°C° 0 mm 1 mps 742 mmHg 64%
    23:00 +15°C° 0 mm 1 mps 741 mmHg 67%

    Day after tomorrow, 21 October, Sunday

    Time Temperature Precipitation Wind Pressure Humidity
    00:00 +15°C° 0 mm 1 mps 741 mmHg 69%
    01:00 +14°C° 0 mm 1 mps 741 mmHg 71%
    02:00 +13°C° 0 mm 0 mps 741 mmHg 72%
    03:00 +13°C° 0 mm 0 mps 741 mmHg 74%
    04:00 +12°C° 0 mm 0 mps 741 mmHg 75%
    05:00 +12°C° 0 mm 0 mps 741 mmHg 77%
    06:00 +12°C° 0 mm 0 mps 741 mmHg 79%
    07:00 +13°C° 0 mm 0 mps 741 mmHg 76%
    08:00 +13°C° 0 mm 0 mps 741 mmHg 73%
    09:00 +14°C° 0 mm 0 mps 742 mmHg 69%
    10:00 +15°C° 0.1 mm 0 mps 742 mmHg 68%
    11:00 +16°C° 0.1 mm 1 mps 742 mmHg 67%
    12:00 +16°C° 0.1 mm 1 mps 742 mmHg 66%
    13:00 +16°C° 0.4 mm 1 mps 742 mmHg 67%
    14:00 +16°C° 0.4 mm 1 mps 742 mmHg 69%
    15:00 +16°C° 0.4 mm 1 mps 742 mmHg 71%
    16:00 +15°C° 0.8 mm 2 mps 742 mmHg 75%
    17:00 +15°C° 0.8 mm 2 mps 742 mmHg 79%
    18:00 +14°C° 0.8 mm 2 mps 742 mmHg 83%
    19:00 +14°C° 0.1 mm 2 mps 742 mmHg 83%
    20:00 +14°C° 0.1 mm 1 mps 742 mmHg 84%
    21:00 +14°C° 0.1 mm 1 mps 742 mmHg 84%
    22:00 +13°C° 0 mm 1 mps 742 mmHg 85%
    23:00 +13°C° 0 mm 1 mps 742 mmHg 85%

    22 October, Monday

    Time Temperature Precipitation Wind Pressure Humidity
    00:00 +13°C° 0 mm 1 mps 742 mmHg 86%
    01:00 +13°C° 0 mm 1 mps 742 mmHg 87%
    02:00 +13°C° 0 mm 2 mps 742 mmHg 88%
    03:00 +13°C° 0 mm 2 mps 742 mmHg 89%
    04:00 +13°C° 0 mm 2 mps 742 mmHg 90%
    05:00 +13°C° 0 mm 2 mps 742 mmHg 90%
    06:00 +13°C° 0 mm 2 mps 742 mmHg 91%
    07:00 +14°C° 0 mm 2 mps 742 mmHg 89%
    08:00 +13°C° 0 mm 3 mps 742 mmHg 86%
    09:00 +14°C° 0 mm 3 mps 742 mmHg 83%
    10:00 +16°C° 0 mm 3 mps 742 mmHg 78%
    11:00 +17°C° 0 mm 3 mps 742 mmHg 72%
    12:00 +19°C° 0 mm 4 mps 742 mmHg 67%
    13:00 +19°C° 0.1 mm 4 mps 742 mmHg 65%
    14:00 +19°C° 0.1 mm 4 mps 742 mmHg 63%
    15:00 +19°C° 0.1 mm 4 mps 742 mmHg 61%
    16:00 +18°C° 0.3 mm 3 mps 741 mmHg 64%
    17:00 +17°C° 0.3 mm 3 mps 741 mmHg 68%
    18:00 +16°C° 0.3 mm 3 mps 741 mmHg 71%
    19:00 +16°C° 0.5 mm 3 mps 741 mmHg 73%
    20:00 +15°C° 0.5 mm 4 mps 741 mmHg 75%
    21:00 +15°C° 0.5 mm 4 mps 741 mmHg 77%
    22:00 +15°C° 0.5 mm 5 mps 741 mmHg 79%
    23:00 +14°C° 0.5 mm 5 mps 740 mmHg 81%

    23 October, Tuesday

    Time Temperature Precipitation Wind Pressure Humidity
    00:00 +14°C° 0.5 mm 5 mps 740 mmHg 82%
    01:00 +14°C° 0.2 mm 5 mps 740 mmHg 84%
    02:00 +14°C° 0.2 mm 4 mps 740 mmHg 85%
    03:00 +14°C° 0.2 mm 4 mps 739 mmHg 87%
    04:00 +14°C° 0.2 mm 4 mps 739 mmHg 88%
    05:00 +14°C° 0.2 mm 4 mps 739 mmHg 89%
    06:00 +14°C° 0.2 mm 4 mps 739 mmHg 91%
    07:00 +14°C° 0.1 mm 4 mps 739 mmHg 89%
    08:00 +14°C° 0.1 mm 5 mps 739 mmHg 87%
    09:00 +14°C° 0.1 mm 5 mps 739 mmHg 84%
    10:00 +14°C° 0 mm 5 mps 739 mmHg 81%
    11:00 +15°C° 0 mm 5 mps 740 mmHg 78%
    12:00 +15°C° 0 mm 5 mps 740 mmHg 75%
    13:00 +15°C° 0 mm 5 mps 740 mmHg 74%
    14:00 +15°C° 0 mm 4 mps 740 mmHg 74%
    15:00 +15°C° 0 mm 4 mps 740 mmHg 73%
    16:00 +16°C° 0 mm 3 mps 740 mmHg 74%
    17:00 +16°C° 0 mm 3 mps 740 mmHg 76%
    18:00 +15°C° 0 mm 2 mps 740 mmHg 77%
    19:00 +15°C° 0 mm 2 mps 740 mmHg 79%
    20:00 +15°C° 0 mm 2 mps 740 mmHg 81%
    21:00 +14°C° 0 mm 2 mps 740 mmHg 83%
    22:00 +14°C° 0 mm 1 mps 740 mmHg 84%
    23:00 +13°C° 0 mm 1 mps 740 mmHg 85%

    24 October, Wednesday

    Time Temperature Precipitation Wind Pressure Humidity
    00:00 +13°C° 0 mm 1 mps 740 mmHg 86%
    01:00 +13°C° 0 mm 1 mps 740 mmHg 87%
    02:00 +12°C° 0 mm 1 mps 739 mmHg 88%
    03:00 +12°C° 0 mm 1 mps 739 mmHg 89%
    04:00 +12°C° 0 mm 1 mps 739 mmHg 90%
    05:00 +11°C° 0 mm 1 mps 739 mmHg 90%
    06:00 +10°C° 0 mm 0 mps 738 mmHg 91%
    07:00 +12°C° 0 mm 1 mps 738 mmHg 88%
    08:00 +12°C° 0 mm 1 mps 738 mmHg 85%
    09:00 +13°C° 0 mm 1 mps 737 mmHg 81%
    10:00 +14°C° 0 mm 1 mps 737 mmHg 75%
    11:00 +15°C° 0 mm 2 mps 736 mmHg 68%
    12:00 +16°C° 0 mm 2 mps 736 mmHg 62%
    13:00 +16°C° 0.1 mm 2 mps 735 mmHg 63%
    14:00 +16°C° 0.1 mm 3 mps 734 mmHg 65%
    15:00 +17°C° 0.1 mm 3 mps 733 mmHg 66%
    16:00 +16°C° 2 mm 3 mps 733 mmHg 73%
    17:00 +14°C° 2 mm 3 mps 732 mmHg 80%
    18:00 +15°C° 2 mm 2 mps 731 mmHg 86%
    19:00 +14°C° 1.6 mm 3 mps 731 mmHg 84%
    20:00 +14°C° 1.6 mm 4 mps 730 mmHg 82%
    21:00 +15°C° 1.6 mm 6 mps 729 mmHg 80%
    22:00 +15°C° 0.2 mm 6 mps 729 mmHg 77%
    23:00 +15°C° 0.2 mm 6 mps 728 mmHg 75%
    Show more